TimeEDT,TemperatureF,Dew PointF,Humidity,Sea Level PressureIn,VisibilityMPH,Wind Direction,Wind SpeedMPH,Gust SpeedMPH,PrecipitationIn,Events,Conditions,WindDirDegrees,DateUTC
12:56 AM,57.9,53.1,84,30.03,10.0,West,4.6,-,N/A,,Clear,280,2013-06-15 04:56:00
1:56 AM,57.0,53.1,87,30.03,10.0,Calm,Calm,-,N/A,,Clear,0,2013-06-15 05:56:00
2:25 AM,53.6,51.8,94,30.04,0.8,Calm,Calm,-,N/A,,Clear,0,2013-06-15 06:25:00
2:34 AM,53.6,51.8,94,30.04,2.5,WSW,3.5,-,N/A,,Clear,240,2013-06-15 06:34:00
2:41 AM,55.4,53.6,94,30.04,4.0,West,3.5,-,N/A,,Clear,270,2013-06-15 06:41:00
2:56 AM,55.0,52.0,89,30.02,8.0,West,4.6,-,N/A,,Clear,260,2013-06-15 06:56:00
3:31 AM,53.6,51.8,94,30.02,1.8,WSW,3.5,-,N/A,,Clear,240,2013-06-15 07:31:00
3:41 AM,53.6,50.0,88,30.02,3.0,West,4.6,-,N/A,,Clear,260,2013-06-15 07:41:00
3:56 AM,53.1,51.1,93,30.01,1.0,West,4.6,-,N/A,,Clear,260,2013-06-15 07:56:00
4:03 AM,53.6,51.8,94,30.03,0.5,WNW,4.6,-,N/A,Fog,Fog,290,2013-06-15 08:03:00
4:13 AM,53.6,51.8,94,30.03,2.0,West,3.5,-,N/A,,Clear,260,2013-06-15 08:13:00
4:20 AM,53.6,50.0,88,30.03,0.8,Calm,Calm,-,N/A,,Clear,0,2013-06-15 08:20:00
4:26 AM,51.8,50.0,94,30.03,2.5,WSW,3.5,-,N/A,,Clear,250,2013-06-15 08:26:00
4:33 AM,51.8,48.2,88,30.04,3.0,West,5.8,-,N/A,,Clear,260,2013-06-15 08:33:00
4:56 AM,53.1,50.0,89,30.03,6.0,West,5.8,-,N/A,,Clear,260,2013-06-15 08:56:00
5:56 AM,51.1,48.9,92,30.05,4.0,WSW,6.9,-,N/A,,Clear,250,2013-06-15 09:56:00
6:03 AM,51.8,48.2,88,30.07,1.5,WSW,5.8,-,N/A,,Clear,250,2013-06-15 10:03:00
6:06 AM,51.8,48.2,88,30.07,0.2,WSW,5.8,-,N/A,Fog,Fog,250,2013-06-15 10:06:00
6:18 AM,51.8,50.0,94,30.08,0.2,WSW,5.8,-,N/A,Fog,Fog,250,2013-06-15 10:18:00
6:56 AM,52.0,50.0,93,30.08,0.2,WSW,5.8,-,N/A,Fog,Fog,240,2013-06-15 10:56:00
7:37 AM,53.6,51.8,94,30.10,1.0,WSW,6.9,-,N/A,,Mist,250,2013-06-15 11:37:00
7:42 AM,53.6,51.8,94,30.10,3.0,West,6.9,-,N/A,,Mostly Cloudy,260,2013-06-15 11:42:00
7:53 AM,53.6,51.8,94,30.09,6.0,WSW,6.9,-,N/A,,Scattered Clouds,250,2013-06-15 11:53:00
7:56 AM,54.0,52.0,93,30.08,6.0,West,6.9,-,N/A,,Scattered Clouds,260,2013-06-15 11:56:00
8:56 AM,57.0,53.1,87,30.11,10.0,SW,4.6,-,N/A,,Clear,230,2013-06-15 12:56:00
9:56 AM,63.0,54.0,72,30.11,10.0,West,5.8,-,N/A,,Clear,280,2013-06-15 13:56:00
10:56 AM,66.9,53.1,61,30.09,10.0,West,11.5,16.1,N/A,,Partly Cloudy,260,2013-06-15 14:56:00
11:56 AM,70.0,48.0,46,30.09,10.0,West,13.8,18.4,N/A,,Clear,280,2013-06-15 15:56:00
12:56 PM,71.1,45.0,39,30.07,10.0,WNW,5.8,-,N/A,,Clear,290,2013-06-15 16:56:00
1:56 PM,72.0,43.0,35,30.06,10.0,WNW,10.4,16.1,N/A,,Clear,290,2013-06-15 17:56:00
2:56 PM,73.0,42.1,33,30.05,10.0,WNW,8.1,-,N/A,,Clear,300,2013-06-15 18:56:00
3:56 PM,73.0,46.9,39,30.04,10.0,WSW,11.5,-,N/A,,Clear,250,2013-06-15 19:56:00
4:56 PM,73.9,46.9,38,30.04,10.0,WSW,8.1,-,N/A,,Clear,250,2013-06-15 20:56:00
5:56 PM,72.0,44.1,37,30.03,10.0,West,8.1,-,N/A,,Clear,260,2013-06-15 21:56:00
6:56 PM,71.1,45.0,39,30.04,10.0,WSW,9.2,-,N/A,,Clear,250,2013-06-15 22:56:00
7:56 PM,66.9,46.0,47,30.05,10.0,WSW,6.9,-,N/A,,Clear,250,2013-06-15 23:56:00
8:56 PM,64.0,45.0,50,30.04,10.0,Calm,Calm,-,N/A,,Clear,0,2013-06-16 00:56:00
9:56 PM,64.0,46.0,52,30.02,10.0,Calm,Calm,-,N/A,,Clear,0,2013-06-16 01:56:00
10:56 PM,63.0,46.9,56,30.02,10.0,East,3.5,-,N/A,,Clear,100,2013-06-16 02:56:00
11:56 PM,63.0,45.0,52,30.01,10.0,South,3.5,-,N/A,,Clear,170,2013-06-16 03:56:00